Torna al catalogo

THORAD AGENA D DEB

AttivoLEO
NORAD 4990·DEBRIS·🇺🇸 United States

Lanciato Apr 8, 1970 da Vandenberg Space Force Base

Loading…

Prossimi Passaggi (prossime 24 ore)

TLE

AggiornatoSource: Space-Track

Epoca: Sep 14, 2026, 09:34 UTC

1 04990U 70025HL  26257.39906572  .00001206  00000-0  77037-3 0  9995
2 04990 100.0163  50.1783 0052059 188.0425 171.9910 14.05168954832978

Traccia THORAD AGENA D DEB in tempo reale con AllMySat

Download on the App Store